OneWeb SL0241

operational
NORAD ID: 48773 Int'l Des: 2021-045 Owner: ONEWEBN Country: UK Constellation: oneweb
LEOCIRCULARPOLARONEWEB_TYPE

About OneWeb SL0241

Description loading...

Live Position

Loading 3D Globe...

Upcoming Passes

Altitude History

Altitude vs Time

uPlot chart will show altitude changes over time

Two-Line Element Set

1 48773U 21045G 25304.48096958 .00000035 00000-0 59011-4 0 9992
2 48773 87.8960 304.8570 0002313 95.0321 265.1073 13.15549253214262
Epoch: Oct 31, 2025 • Age: 9 hours

Current Status

Altitude 1206.9 km
Velocity 7.26 km/s
Sub-Earth Point 42.40°N, 46.98°W
Launch Date May 28, 2021
Age 4.4 years
Type internet

Technical Details

Classification Payload
Mass 148.00 kg
Dry Mass 140.00 kg
Total Mass 148.00 kg
Length 1.30 m
Diameter 1.00 m
Span 5.00 m
Shape Trapezoid+2 pan
Manufacturer ONEWUS
Bus Type ARROW
Phase Status In Orbit
Owner/State ONEWEBN/UK

Large Constellations

Loading constellations...